TURKSAT 5A

Last updated on Tue Jul 08 2025 00:02:48 GMT+0000 (Coordinated Universal Time)

1 47306U 21001A 25188.56966981 .00000171 00000+0 00000+0 0 9995 2 47306 0.0336 81.5594 0000169 20.7374 59.4961 1.00270749 16512
UTC large
Height (km)
Speed (km/s)
/
Latitude / Longitude
Inclination (degrees)
Orbital Period (minutes)
Azimuth
Elevation
Range (km)
Doppler Factor

Next 0 passes for location: London (51.5072 / 0.1276)

Sorry there are no passes over London.